Location: Göttingen
(51.5413°N, 9.9158°E)
Time: 17:44:38
(UTC+02:00)

BEESAT - Pass Details

Date: 01 July 2022
Orbit: 700 x 706 km, 98.6° (Epoch: 13 August)

Event Time Altitude Azimuth Distance (km) Brightness Sun altitude
Rises 23:50:45 0° 3° (N) 3,107 ? -12.6°
Reaches altitude 10° 23:54:03 10° 338° (NNW) 2,185 ? -12.8°
Maximum altitude 23:56:26 14° 308° (NW) 1,928 ? -12.9°
Drops below altitude 10° 23:58:48 10° 278° (W) 2,180 ? -13.1°
Sets 00:02:06 0° 254° (WSW) 3,095 ? -13.2°
